Location: Johnson City
(36.3130°N, 82.3540°W)
Time: 08:15:31
(UTC-04:00)

Envisat - Pass Details

Date: 27 February 2019
Orbit: 764 x 766 km, 98.1° (Epoch: 20 October)

Event Time Altitude Azimuth Distance (km) Brightness Sun altitude
Rises 19:28:13 0° 175° (S) 3,213 6.2 -14.1°
Reaches altitude 10° 19:30:33 10° 179° (S) 2,291 5.5 -14.6°
Maximum altitude 19:35:32 61° 259° (W) 865 3.6 -15.6°
Drops below altitude 10° 19:40:34 10° 340° (NNW) 2,305 5.8 -16.6°
Sets 19:42:54 0° 344° (NNW) 3,235 6.5 -17.0°
